Home > Weather > Saipan > Past weeks

Flag for Northern Mariana Islands Past Weather in Saipan, Northern Mariana Islands — Yesterday and Last 2 Weeks

Now
87 °F

Scattered clouds.


Feels Like: 99 °F
Forecast: 78 / 85 °F
Wind: 7 mph from Southeast

Location: Saipan International Airport

Current Time: Jul 24, 2016 at 4:56:06 PM

Latest Report: Jul 24, 2016 at 3:54 PM


Visibility: 10 mi

Pressure: 29.84 "Hg

Humidity: 72%

Dew Point: 77 °F

Location of SaipanLocation

Past Weather in Saipan — Graph

°F

Saipan Temperature Yesterday

Maximum temperature yesterday: 89 °F (at 11:54 AM)
Minimum temperature yesterday: 80 °F (at 1:54 AM)
Average temperature yesterday: 84 °F

High & Low Weather Summary for the Past Weeks

 TemperatureHumidityPressure
High92 °F (Jul 22, 12:54 PM)94% (Jul 9, 6:34 PM)30.01 "Hg (Jul 9, 6:34 PM)
Low78 °F (Jul 14, 10:54 PM)60% (Jul 20, 2:54 PM)29.76 "Hg (Jul 21, 3:15 PM)
Average84 °F80%29.91 "Hg
* Reported Jul 9 2:54 PM — Jul 24 2:54 PM, Saipan, Weather by CustomWeather, © 2016

Note: Actual official high and low records may vary slightly from our data, if they occured in-between our weather recording intervals... More about our weather records

Advertising

Saipan Weather History for the Previous 24 Hours

Scroll right to see more
 ConditionsComfort  
Time TempWeatherWind HumidityBarometerVisibility
2:54 PM
Sun, Jul 24
88 °FBroken clouds.10 mph70%29.85 "Hg10 mi
1:54 PM85 °FScattered clouds.8 mph86%29.86 "Hg10 mi
12:54 PM87 °FScattered clouds.8 mph75%29.87 "Hg10 mi
11:54 AM87 °FScattered clouds.9 mph69%29.88 "Hg10 mi
10:54 AM90 °FScattered clouds.10 mph63%29.88 "Hg10 mi
9:54 AM89 °FPassing clouds.8 mph68%29.89 "Hg10 mi
8:54 AM88 °FPassing clouds.7 mph67%29.90 "Hg10 mi
7:54 AM85 °FSunny.6 mph77%29.89 "Hg10 mi
6:54 AM83 °FPartly sunny.3 mph82%29.88 "Hg10 mi
5:54 AM80 °FPassing clouds.No wind87%29.87 "Hg10 mi
4:54 AM80 °FPassing clouds.No wind87%29.86 "Hg10 mi
3:54 AM80 °FPassing clouds.No wind90%29.86 "Hg10 mi
2:54 AM81 °FPassing clouds.No wind88%29.87 "Hg10 mi
1:54 AM82 °FPassing clouds.No wind85%29.88 "Hg10 mi
12:54 AM83 °FPassing clouds.No wind79%29.88 "Hg10 mi
11:54 PM
Sat, Jul 23
80 °FClear.No wind87%29.90 "Hg10 mi
10:54 PM82 °FPassing clouds.No wind77%29.91 "Hg10 mi
9:54 PM82 °FPassing clouds.No wind85%29.91 "Hg10 mi
8:54 PM84 °FClear.No wind80%29.90 "Hg10 mi
7:54 PM84 °FPassing clouds.No wind80%29.88 "Hg10 mi
6:54 PM84 °FPassing clouds.3 mph80%29.87 "Hg10 mi
5:54 PM86 °FScattered clouds.5 mph75%29.84 "Hg10 mi
4:54 PM87 °FScattered clouds.8 mph72%29.83 "Hg10 mi
Weather by CustomWeather, © 2016

See weather overviewHow to use our weather pages